Hourly Data Report for August 11, 2002

SHERBROOKE A
QUEBEC

45°26'00.000" N
71°41'00.000" W
241.40 m
7028124
71610
YSC

Download Data

Hourly Data (August 2002)
Hourly Data Report for August 11, 2002
TIME
LST
Temp Definition
°C
Dew Point Definition
°C
Rel Hum Definition
%
Precip. Amount Definition
mm

Wind Dir Definition
10's deg

Wind Spd Definition
km/h
Visibility Definition
km
Stn Press Definition
kPa
Hmdx Definition


Wind Chill Definition


Weather Definition


00:00 13.7 12.9 95     0 15.0 98.92      
01:00 12.5 11.9 96   8 4 11.3 98.89      
02:00 11.9 11.5 97     0 9.7 98.89      
03:00 11.4 10.9 97   7 6 15.0 98.90      
04:00 10.7 10.4 98   8 4 15.0 98.92      
05:00 10.4 10.0 97   13 4 15.0 98.94      
06:00 14.2 13.2 94   12 6 15.0 98.97      
07:00 17.3 14.9 86     0 24.1 98.99     Clear
08:00 21.9 15.9 69   21 6 24.1 98.98 26   Clear
09:00 24.3 16.5 62   24 7 24.1 98.97 29   Clear
10:00 25.9 15.4 52   23 13 24.1 98.96 30   Clear
11:00 27.1 16.3 52   21 15 24.1 98.93 32   Mainly Clear
12:00 27.8 16.2 49   21 15 24.1 98.89 33   Clear
13:00 28.6 15.7 46   25 13 24.1 98.83 33   Clear
14:00 28.9 15.0 43   24 9 24.1 98.80 33   Clear
15:00 28.7 13.5 39   23 13 24.1 98.77 32   Clear
16:00 28.6 13.0 38   22 15 24.1 98.75 31   Clear
17:00 28.1 13.9 42   24 9 15.0 98.73 31    
18:00 26.0 18.6 64   18 4 15.0 98.71 32    
19:00 20.1 16.9 82   13 4 15.0 98.70 25    
20:00 18.6 16.7 89   10 6 11.3 98.69      
21:00 18.1 16.6 91   8 6 8.0 98.68      
22:00 17.9 16.4 91   9 7 5.6 98.68      
23:00 16.1 15.2 94   9 4 3.9 98.69      

Notes on Data Quality.

Legend

  • E = Estimated
  • M = Missing
  • NA = Not Available*
  • [empty] = Indicates an unobserved value
Date modified: